This demonstration page uses our WeatherBlox Daily Observations layout. Learn more.

Left ArrowRight Arrow

Hourly Observations for June 19, 2021

Temp ( °F °C ) Dew Point ( °F °C ) Humidity (%) Winds ( mph kmh ) Pressure ( in mb ) Visibility ( mi km ) Precip ( " mm )
12:53 am 00:53 Clear 85 29.4 47 8.3 27 27 NNW 6 9 29.65 1004 10 16 0.00 0.00
1:53 am 01:53 Clear 82 27.8 48 8.9 31 31 N 6 9 29.65 1004 10 16 0.00 0.00
2:53 am 02:53 Clear 77 25 50 10 39 39 Calm 29.65 1004 10 16 0.00 0.00
3:53 am 03:53 Clear 79 26.1 51 10.6 38 38 NNW 6 9 29.65 1004 10 16 0.00 0.00
4:53 am 04:53 Clear 80 26.7 51 10.6 37 37 N 5 7 29.66 1005 10 16 0.00 0.00
5:53 am 05:53 Sunny 74 23.3 51 10.6 45 45 Calm 29.67 1005 10 16 0.00 0.00
6:53 am 06:53 Sunny 76 24.4 51 10.6 42 42 Calm 29.69 1005 10 16 0.00 0.00
7:53 am 07:53 Sunny 88 31.1 49 9.4 26 26 N 9 15 29.69 1005 10 16 0.00 0.00
8:53 am 08:53 Sunny 91 32.8 49 9.4 24 24 N 9 15 29.70 1006 10 16 0.00 0.00
9:53 am 09:53 Sunny 95 35 50 10 22 22 N 7 11 29.69 1006 10 16 0.00 0.00
10:53 am 10:53 Sunny 100 37.8 50 10 18 18 NNW 9 15 29.68 1005 10 16 0.00 0.00
11:53 am 11:53 Sunny 103 39.4 49 9.4 16 16 VRB 7 11 29.67 1005 10 16 0.00 0.00
12:53 pm 12:53 Sunny 105 40.6 46 7.8 14 14 VRB 6 9 29.66 1005 10 16 0.00 0.00
1:53 pm 13:53 Sunny 107 41.7 44 6.7 12 12 SW 10 17 29.65 1004 10 16 0.00 0.00
2:53 pm 14:53 Sunny 109 42.8 36 2.2 8 8 SE 12 19 29.64 1004 10 16 0.00 0.00
3:53 pm 15:53 Sunny 108 42.2 28 -2.2 6 6 SSE 9 15 29.63 1003 10 16 0.00 0.00
4:53 pm 16:53 Sunny 108 42.2 21 -6.1 4 4 S 9 15 29.62 1003 10 16 0.00 0.00
5:53 pm 17:53 Sunny 107 41.7 26 -3.3 6 6 SSE 12 19 29.61 1003 10 16 0.00 0.00
6:53 pm 18:53 Sunny 106 41.1 24 -4.4 5 5 S 9 15 29.60 1002 10 16 0.00 0.00
7:53 pm 19:53 Sunny 102 38.9 32 0 9 9 S 7 11 29.60 1003 10 16 0.00 0.00
8:53 pm 20:53 Clear 94 34.4 36 2.2 13 13 ESE 6 9 29.61 1003 10 16 0.00 0.00
9:53 pm 21:53 Clear 90 32.2 43 6.1 19 19 SSW 3 6 29.63 1003 10 16 0.00 0.00
10:53 pm 22:53 Clear 83 28.3 44 6.7 25 25 WNW 5 7 29.65 1004 10 16 0.00 0.00
11:53 pm 23:53 Clear 81 27.2 45 7.2 28 28 N 3 6 29.67 1005 10 16 0.00 0.00

Powered by AerisWeather